Location: Praha
(50.0830°N, 14.4670°E)
Time: 12:49:34
(UTC+02:00)

ISS - Pass Details

Date: 25 September 2021
Orbit: 419 x 423 km, 51.6° (Epoch: 21 September)

Event Time Altitude Azimuth Distance (km) Brightness Sun altitude
Rises 21:50:10 0° 286° (WNW) 2,369 1.1 -27.6°
Reaches altitude 10° 21:52:16 10° 285° (WNW) 1,504 -0.1 -27.8°
Enters shadow 21:53:21 19° 284° (WNW) 1,074 -1.0 -28.0°
